Regional Weather Roundup
Issued by NWS Kansas City/Pleasant Hill, MO

Home | Current Version | Previous Version | Graphics & Text | Print | Product List | Glossary Off
Versions: 1 2 3 4 5 6 7 8 9 10 11 12 13 14 15 16 17 18 19 20 21 22 23 24 25 26 27 28 29 30 31 32 33 34 35 36 37 38 39 40 41 42 43 44 45 46 47 48 49 50

000
ASUS43 KEAX 271111
RWREAX

WEATHER ROUNDUP FOR EASTERN KANSAS AND NORTHWEST MISSOURI
NATIONAL WEATHER SERVICE KANSAS CITY/PLEASANT HILL MO
500 AM CST FRI FEB 27 2015

KSZ040-057-103>105-MOZ028-029-037-043-271200-
...KANSAS CITY METROPOLITAN AREA...

CITY           SKY/WX    TMP DP  RH WIND       PRES   REMARKS
K.C. INTL      PTCLDY     2  -4  76 N3        30.58S
K.C. DOWNTOWN  CLEAR      5  -4  66 N5        30.62S WCI  -4
LEES SUMMIT    CLEAR      2  -4  76 N5        30.59S WCI  -8
OLATHE - IXD   CLEAR      2  -3  80 CALM      30.58S
OLATHE - OJC   CLEAR      4  -4  69 N6        30.56S WCI  -7
LAWRENCE       CLEAR      1  -4  79 CALM      30.61S

$$

MOZ001>008-011>017-020>025-030>033-038>040-044>046-053-054-271200-
...NORTHERN AND CENTRAL MISSOURI...

CITY           SKY/WX    TMP DP  RH WIND       PRES   REMARKS
ST. JOSEPH     CLEAR     -2  -6  83 N6        30.62S WCI -14
MOSBY          SUNNY      3  -2  78 CALM      30.62S
WARRENSBURG    CLEAR      3   0  85 CALM      30.61F
WHITEMAN AFB   CLEAR      2  -2  81 N5        30.59S WCI  -7
CLINTON        CLEAR      7   1  78 N7        30.60F WCI  -5
SEDALIA        CLEAR      5  -2  72 N7        30.60S WCI  -7
WARSAW         NOT AVBL
MARSHALL       CLEAR      7   0  72 CALM      30.61R
CHILLICOTHE      N/A      0  -6  76 CALM      30.62R
MOBERLY        CLEAR      1  -6  71 NW5       30.59R WCI  -8
KIRKSVILLE     CLEAR     -3  -7  82 NW3       30.58R

$$

MOZ041-047>049-056>058-063>065-088>090-097-271200-
...EASTERN AND SOUTHERN MISSOURI...

CITY           SKY/WX    TMP DP  RH WIND       PRES   REMARKS
ST. LOUIS INTL CLEAR      4  -5  66 NW5       30.60R WCI  -5
SPIRIT OF STL  CLEAR      4  -5  66 N6        30.61R WCI  -7
COLUMBIA       CLEAR      2  -4  76 NW3       30.59R
JEFFERSON CITY CLEAR      4  -5  66 CALM      30.63R
MEXICO         PTCLDY     3  -2  78 NW7       30.58R WCI  -9
HANNIBAL       CLEAR     -4 -11  71 NW6       30.59R WCI -16
ROLLA          CLEAR      3  -4  72 N5        30.53R WCI  -6
OSAGE BEACH    CLEAR      5  -2  72 NE3       30.57R
SPRINGFIELD    CLEAR      8   0  69 N7        30.52R WCI  -3
BRANSON        CLEAR      9   1  72 N5        30.51S WCI   0
NEVADA         CLEAR      7   1  78 N6        30.61R WCI  -3
JOPLIN         CLEAR      9   2  73 NE8       30.56R WCI  -3
WEST PLAINS    CLEAR      8  -2  63 N7        30.51R WCI  -3

$$

IAZ060-094-KSZ022-034>040-054-083-096-NEZ052-066-093-271200-
...KANSAS...SOUTHEAST NEBRASKA AND IOWA...

CITY           SKY/WX    TMP DP  RH WIND       PRES   REMARKS
TOPEKA         CLEAR      5  -2  72 NE6       30.60F WCI  -6
MANHATTAN      PTCLDY     6   1  80 CALM      30.59R
EMPORIA        CLEAR      6   1  80 CALM      30.57R
CHANUTE        CLEAR      7  -1  70 N7        30.58S WCI  -5
WICHITA        CLOUDY    11  -1  58 NE12      30.53F WCI  -3
OMAHA          CLEAR     -2  -7  79 NW5       30.60S WCI -12
LINCOLN        CLEAR     -3  -8  79 N5        30.59S WCI -13
FALLS CITY     CLEAR     -4  -8  83 NW3       30.60R
LAMONI         CLEAR     -6 -10  83 NW5       30.55F WCI -17
DES MOINES     CLEAR     -6 -12  75 NW3       30.58S

$$



USA.gov is the U.S. government's official web portal to all federal, state and local government web resources and services.